| time (UTC) | temp F | wind direction | speed knots | gust knots | rain 1hr in | rain 24hr in | rain mn in | humidity % | barometer mb |
| 20260503223801 | 71 | 313 | 6.1 | 8.7 | 0.00 | 0.00 | 0.00 | 37 | 1002.2 |
| 20260503223300 | 72 | 293 | 6.1 | 8.7 | 0.00 | 0.00 | 0.00 | 35 | 1002.0 |
| 20260503222801 | 72 | 299 | 6.1 | 9.6 | 0.00 | 0.00 | 0.00 | 38 | 1002.0 |
| 20260503222726 | 72 | 296 | 4.3 | 8.7 | 0.00 | 0.00 | 0.00 | 36 | 1002.0 |
| 20260503222708 | 72 | 281 | 4.3 | 7.8 | 0.00 | 0.00 | 0.00 | 39 | 1001.9 |
| 20260503222403 | 72 | 311 | 6.1 | 9.6 | 0.00 | 0.00 | 0.00 | 36 | 1001.9 |
| 20260503220801 | 72 | 294 | 4.3 | 10.4 | 0.00 | 0.00 | 0.00 | 38 | 1001.9 |
| 20260503220300 | 73 | 297 | 5.2 | 10.4 | 0.00 | 0.00 | 0.00 | 35 | 1002.0 |
| 20260503215805 | 73 | 288 | 4.3 | 9.6 | 0.00 | 0.00 | 0.00 | 36 | 1001.9 |
| 20260503215301 | 73 | 291 | 4.3 | 8.7 | 0.00 | 0.00 | 0.00 | 37 | 1002.0 |
| 20260503214801 | 73 | 289 | 5.2 | 8.7 | 0.00 | 0.00 | 0.00 | 36 | 1001.9 |
| 20260503214549 | 74 | 306 | 6.1 | 9.6 | 0.00 | 0.00 | 0.00 | 34 | 1002.0 |
| 20260503214343 | 73 | 304 | 6.1 | 9.6 | 0.00 | 0.00 | 0.00 | 35 | 1002.0 |
| 20260503213304 | 74 | 311 | 4.3 | 9.6 | 0.00 | 0.00 | 0.00 | 32 | 1002.2 |
| 20260503213036 | 74 | 283 | 4.3 | 8.7 | 0.00 | 0.00 | 0.00 | 39 | 1002.2 |
| 20260503212826 | 74 | 321 | 4.3 | 8.7 | 0.00 | 0.00 | 0.00 | 34 | 1002.2 |
| 20260503211809 | 74 | 196 | 4.3 | 7.8 | 0.00 | 0.00 | 0.00 | 35 | 1002.2 |
| 20260503211302 | 74 | 289 | 5.2 | 8.7 | 0.00 | 0.00 | 0.00 | 37 | 1002.4 |
| 20260503210803 | 74 | 290 | 5.2 | 8.7 | 0.00 | 0.00 | 0.00 | 36 | 1002.3 |
| 20260503210305 | 74 | 306 | 4.3 | 7.8 | 0.00 | 0.00 | 0.00 | 35 | 1002.3 |
| 20260503205936 | 74 | 284 | 5.2 | 9.6 | 0.00 | 0.00 | 0.00 | 36 | 1002.3 |
| 20260503205924 | 74 | 294 | 5.2 | 9.6 | 0.00 | 0.00 | 0.00 | 37 | 1002.3 |
| 20260503205853 | 74 | 290 | 5.2 | 8.7 | 0.00 | 0.00 | 0.00 | 36 | 1002.4 |
| 20260503205811 | 74 | 279 | 4.3 | 7.8 | 0.00 | 0.00 | 0.00 | 42 | 1002.3 |
| 20260503205437 | 74 | 292 | 4.3 | 7.8 | 0.00 | 0.00 | 0.00 | 37 | 1002.3 |
| 20260503203719 | 74 | 300 | 3.5 | 7.0 | 0.00 | 0.00 | 0.00 | 37 | 1002.5 |
| 20260503203421 | 75 | 303 | 4.3 | 8.7 | 0.00 | 0.00 | 0.00 | 37 | 1002.4 |
| 20260503202838 | 75 | 301 | 3.5 | 7.0 | 0.00 | 0.00 | 0.00 | 35 | 1002.4 |
| 20260503201801 | 74 | 308 | 5.2 | 7.8 | 0.00 | 0.00 | 0.00 | 40 | 1002.5 |
| 20260503201303 | 74 | 294 | 4.3 | 7.8 | 0.00 | 0.00 | 0.00 | 36 | 1002.4 |
| 20260503200802 | 74 | 266 | 2.6 | 7.8 | 0.00 | 0.00 | 0.00 | 38 | 1002.5 |
| 20260503200304 | 74 | 237 | 3.5 | 8.7 | 0.00 | 0.00 | 0.00 | 38 | 1002.5 |
| 20260503195801 | 74 | 259 | 3.5 | 8.7 | 0.00 | 0.00 | 0.00 | 41 | 1002.6 |
| 20260503195307 | 74 | 223 | 3.5 | 8.7 | 0.00 | 0.00 | 0.00 | 37 | 1002.7 |
| 20260503194820 | 73 | 281 | 4.3 | 8.7 | 0.00 | 0.00 | 0.00 | 40 | 1003.0 |
| 20260503194806 | 74 | 217 | 2.6 | 7.8 | 0.00 | 0.00 | 0.00 | 39 | 1002.7 |
| 20260503194755 | 74 | 288 | 3.5 | 9.6 | 0.00 | 0.00 | 0.00 | 43 | 1002.8 |
| 20260503194421 | 74 | 292 | 2.6 | 7.8 | 0.00 | 0.00 | 0.00 | 42 | 1002.7 |
| 20260503193321 | 73 | 292 | 4.3 | 9.6 | 0.00 | 0.00 | 0.00 | 40 | 1002.9 |
| 20260503192248 | 72 | 298 | 3.5 | 8.7 | 0.00 | 0.00 | 0.00 | 42 | 1003.1 |
| 20260503191948 | 72 | 235 | 4.3 | 8.7 | 0.00 | 0.00 | 0.00 | 39 | 1003.1 |
| 20260503191814 | 72 | 264 | 4.3 | 8.7 | 0.00 | 0.00 | 0.00 | 40 | 1003.1 |
| 20260503190751 | 72 | 224 | 4.3 | 8.7 | 0.00 | 0.00 | 0.00 | 39 | 1003.1 |
| 20260503190250 | 72 | 225 | 3.5 | 8.7 | 0.00 | 0.00 | 0.00 | 42 | 1003.3 |
| 20260503185750 | 72 | 221 | 3.5 | 8.7 | 0.00 | 0.00 | 0.00 | 38 | 1003.3 |
| 20260503185246 | 72 | 204 | 2.6 | 7.0 | 0.00 | 0.00 | 0.00 | 39 | 1003.3 |
| 20260503184746 | 71 | 264 | 2.6 | 7.0 | 0.00 | 0.00 | 0.00 | 43 | 1003.3 |
| 20260503184247 | 71 | 269 | 3.5 | 7.8 | 0.00 | 0.00 | 0.00 | 44 | 1003.3 |
| 20260503183747 | 70 | 268 | 4.3 | 7.8 | 0.00 | 0.00 | 0.00 | 38 | 1003.4 |
| 20260503183438 | 71 | 218 | 3.5 | 10.4 | 0.00 | 0.00 | 0.00 | 39 | 1003.5 |
| 20260503183309 | 70 | 248 | 4.3 | 7.8 | 0.00 | 0.00 | 0.00 | 38 | 1003.4 |
| 20260503182455 | 71 | 228 | 3.5 | 10.4 | 0.00 | 0.00 | 0.00 | 39 | 1003.6 |
| 20260503182313 | 71 | 207 | 3.5 | 10.4 | 0.00 | 0.00 | 0.00 | 40 | 1003.6 |
| 20260503181243 | 71 | 253 | 3.5 | 10.4 | 0.00 | 0.00 | 0.00 | 38 | 1003.7 |
| 20260503180740 | 71 | 294 | 3.5 | 7.0 | 0.00 | 0.00 | 0.00 | 41 | 1003.7 |
| 20260503180239 | 70 | 292 | 3.5 | 8.7 | 0.00 | 0.00 | 0.00 | 41 | 1003.7 |
| 20260503175742 | 70 | 267 | 3.5 | 8.7 | 0.00 | 0.00 | 0.00 | 41 | 1003.8 |
| 20260503175240 | 70 | 223 | 4.3 | 8.7 | 0.00 | 0.00 | 0.00 | 41 | 1003.9 |
| 20260503175219 | 69 | 296 | 2.6 | 7.0 | 0.00 | 0.00 | 0.00 | 43 | 1004.0 |
| 20260503175155 | 68 | 239 | 2.6 | 6.1 | 0.00 | 0.00 | 0.00 | 45 | 1004.0 |
| 20260503174842 | 69 | 283 | 3.5 | 8.7 | 0.00 | 0.00 | 0.00 | 40 | 1003.9 |
| 20260503173245 | 67 | 242 | 3.5 | 10.4 | 0.00 | 0.00 | 0.00 | 41 | 1004.1 |
| 20260503172744 | 67 | 244 | 3.5 | 10.4 | 0.00 | 0.00 | 0.00 | 41 | 1004.1 |
| 20260503172237 | 67 | 261 | 3.5 | 7.0 | 0.00 | 0.00 | 0.00 | 44 | 1004.2 |
| 20260503171739 | 66 | 239 | 3.5 | 7.0 | 0.00 | 0.00 | 0.00 | 44 | 1004.2 |
| 20260503171238 | 65 | 286 | 5.2 | 9.6 | 0.00 | 0.00 | 0.00 | 44 | 1004.2 |
| 20260503170739 | 65 | 238 | 6.1 | 9.6 | 0.00 | 0.00 | 0.00 | 42 | 1004.2 |
| 20260503170233 | 65 | 211 | 5.2 | 9.6 | 0.00 | 0.00 | 0.00 | 43 | 1004.2 |
| 20260503150729 | 62 | 247 | 8.7 | 13.0 | 0.00 | 0.00 | 0.00 | 45 | 1004.8 |
| 20260503150436 | 61 | 207 | 8.7 | 12.2 | 0.00 | 0.00 | 0.00 | 45 | 1004.9 |
| 20260503150303 | 61 | 214 | 8.7 | 13.0 | 0.00 | 0.00 | 0.00 | 44 | 1004.8 |
| 20260503140221 | 60 | 229 | 7.8 | 16.5 | 0.00 | 0.00 | 0.00 | 46 | 1005.2 |
| 20260503131216 | 58 | 171 | 8.7 | 13.9 | 0.00 | 0.00 | 0.00 | 49 | 1005.5 |
| 20260503130715 | 58 | 201 | 7.8 | 13.0 | 0.00 | 0.00 | 0.00 | 49 | 1005.5 |
| 20260503130455 | 58 | 181 | 7.8 | 14.8 | 0.00 | 0.00 | 0.00 | 52 | 1005.7 |
| 20260503130251 | 58 | 189 | 7.0 | 12.2 | 0.00 | 0.00 | 0.00 | 51 | 1005.6 |
| 20260503110705 | 55 | 181 | 8.7 | 17.4 | 0.00 | 0.00 | 0.00 | 50 | 1005.4 |
| 20260503110206 | 55 | 233 | 8.7 | 17.4 | 0.00 | 0.00 | 0.00 | 50 | 1005.4 |
| 20260503100208 | 54 | 222 | 5.2 | 9.6 | 0.00 | 0.00 | 0.00 | 50 | 1006.7 |
| 20260503081433 | 55 | 227 | 2.6 | 6.1 | 0.00 | 0.00 | 0.00 | 45 | 1008.0 |
| 20260503081238 | 55 | 253 | 2.6 | 6.1 | 0.00 | 0.00 | 0.00 | 45 | 1008.0 |
| 20260503080204 | 55 | 271 | 3.5 | 7.8 | 0.00 | 0.00 | 0.00 | 45 | 1008.1 |
| 20260503072706 | 54 | 225 | 1.7 | 6.1 | 0.00 | 0.00 | 0.00 | 45 | 1008.4 |
| 20260503072212 | 54 | 206 | 1.7 | 6.1 | 0.00 | 0.00 | 0.00 | 45 | 1008.4 |
| 20260503071857 | 54 | 254 | 2.6 | 7.0 | 0.00 | 0.00 | 0.00 | 45 | 1008.4 |
| 20260503071740 | 54 | 223 | 2.6 | 7.0 | 0.00 | 0.00 | 0.00 | 45 | 1008.4 |
| 20260503070708 | 54 | 227 | 3.5 | 7.0 | 0.00 | 0.00 | 0.00 | 45 | 1008.4 |
| 20260503070313 | 53 | 223 | 2.6 | 5.2 | 0.00 | 0.00 | 0.00 | 46 | 1008.6 |
| 20260503070241 | 53 | 211 | 2.6 | 4.3 | 0.00 | 0.00 | 0.00 | 47 | 1008.6 |
| 20260503070229 | 53 | 221 | 3.5 | 7.0 | 0.00 | 0.00 | 0.00 | 47 | 1008.5 |
| 20260503070209 | 54 | 269 | 3.5 | 7.0 | 0.00 | 0.00 | 0.00 | 46 | 1008.4 |
| 20260503054933 | 53 | 302 | 0.0 | 0.0 | 0.00 | 0.00 | 0.00 | 50 | 1009.2 |
| 20260503054921 | 53 | 216 | 0.0 | 0.9 | 0.00 | 0.00 | 0.00 | 50 | 1009.3 |
| 20260503054721 | 52 | 295 | 0.0 | 1.7 | 0.00 | 0.00 | 0.00 | 49 | 1009.1 |
| 20260503053142 | 53 | 216 | 0.0 | 1.7 | 0.00 | 0.00 | 0.00 | 48 | 1009.2 |
| 20260503052755 | 53 | 216 | 0.9 | 3.5 | 0.00 | 0.00 | 0.00 | 47 | 1009.3 |
| 20260503052703 | 53 | 216 | 0.9 | 3.5 | 0.00 | 0.00 | 0.00 | 47 | 1009.3 |
| 20260503051647 | 53 | 258 | 0.0 | 2.6 | 0.00 | 0.00 | 0.00 | 47 | 1009.4 |
| 20260503051141 | 54 | 247 | 0.9 | 2.6 | 0.00 | 0.00 | 0.00 | 47 | 1009.4 |
| 20260503050640 | 54 | 249 | 1.7 | 3.5 | 0.00 | 0.00 | 0.00 | 46 | 1009.4 |
| 20260503050135 | 54 | 257 | 0.9 | 3.5 | 0.00 | 0.00 | 0.00 | 46 | 1009.4 |
| 20260503045639 | 54 | 229 | 0.9 | 2.6 | 0.00 | 0.00 | 0.00 | 47 | 1009.4 |
| 20260503045305 | 54 | 189 | 1.7 | 2.6 | 0.00 | 0.00 | 0.00 | 46 | 1009.5 |
| 20260503045158 | 54 | 189 | 1.7 | 2.6 | 0.00 | 0.00 | 0.00 | 46 | 1009.4 |
| 20260503044133 | 54 | 189 | 1.7 | 2.6 | 0.00 | 0.00 | 0.00 | 46 | 1009.5 |
| 20260503043755 | 54 | 187 | 1.7 | 4.3 | 0.00 | 0.00 | 0.00 | 45 | 1009.6 |
| 20260503043657 | 54 | 189 | 1.7 | 3.5 | 0.00 | 0.00 | 0.00 | 46 | 1009.5 |
| 20260503042630 | 55 | 187 | 1.7 | 4.3 | 0.00 | 0.00 | 0.00 | 45 | 1009.6 |
| 20260503042134 | 54 | 188 | 1.7 | 2.6 | 0.00 | 0.00 | 0.00 | 45 | 1009.6 |
| 20260503041631 | 54 | 188 | 1.7 | 2.6 | 0.00 | 0.00 | 0.00 | 45 | 1009.7 |
| 20260503041132 | 55 | 188 | 1.7 | 2.6 | 0.00 | 0.00 | 0.00 | 45 | 1009.7 |
| 20260503040629 | 55 | 188 | 1.7 | 2.6 | 0.00 | 0.00 | 0.00 | 46 | 1009.7 |
| 20260503040233 | 54 | 188 | 2.6 | 3.5 | 0.00 | 0.00 | 0.00 | 45 | 1009.8 |
| 20260503040148 | 55 | 188 | 1.7 | 3.5 | 0.00 | 0.00 | 0.00 | 45 | 1009.8 |
| 20260503035129 | 54 | 188 | 1.7 | 3.5 | 0.00 | 0.00 | 0.00 | 45 | 1009.9 |
| 20260503034812 | 54 | 188 | 1.7 | 2.6 | 0.00 | 0.00 | 0.00 | 46 | 1010.0 |
| 20260503034658 | 54 | 188 | 1.7 | 2.6 | 0.00 | 0.00 | 0.00 | 46 | 1010.0 |
| 20260503033926 | 55 | 188 | 1.7 | 2.6 | 0.00 | 0.00 | 0.00 | 45 | 1010.1 |
| 20260503033915 | 55 | 188 | 0.9 | 2.6 | 0.00 | 0.00 | 0.00 | 45 | 1010.3 |
| 20260503033723 | 54 | 188 | 1.7 | 2.6 | 0.00 | 0.00 | 0.00 | 45 | 1010.1 |
| 20260503032134 | 55 | 188 | 0.9 | 2.6 | 0.00 | 0.00 | 0.00 | 45 | 1010.3 |
| 20260503031632 | 55 | 188 | 0.9 | 1.7 | 0.00 | 0.00 | 0.00 | 45 | 1010.3 |
| 20260503031133 | 55 | 188 | 0.9 | 2.6 | 0.00 | 0.00 | 0.00 | 45 | 1010.4 |
| 20260503030816 | 55 | 188 | 0.0 | 2.6 | 0.00 | 0.00 | 0.00 | 44 | 1010.6 |
| 20260503030700 | 55 | 188 | 0.9 | 2.6 | 0.00 | 0.00 | 0.00 | 45 | 1010.5 |
| 20260503025631 | 55 | 188 | 0.0 | 0.0 | 0.00 | 0.00 | 0.00 | 44 | 1010.7 |
| 20260503025133 | 55 | 188 | 0.0 | 0.0 | 0.00 | 0.00 | 0.00 | 44 | 1010.7 |
| 20260503024629 | 56 | 188 | 0.0 | 0.0 | 0.00 | 0.00 | 0.00 | 44 | 1010.7 |
| 20260503024129 | 56 | 188 | 0.0 | 0.9 | 0.00 | 0.00 | 0.00 | 43 | 1010.6 |
| 20260503023630 | 56 | 188 | 0.9 | 1.7 | 0.00 | 0.00 | 0.00 | 42 | 1010.7 |
| 20260503023128 | 56 | 188 | 0.9 | 1.7 | 0.00 | 0.00 | 0.00 | 41 | 1010.7 |
| 20260503022630 | 57 | 188 | 0.9 | 1.7 | 0.00 | 0.00 | 0.00 | 42 | 1010.7 |
| 20260503022129 | 57 | 188 | 0.9 | 2.6 | 0.00 | 0.00 | 0.00 | 41 | 1010.7 |
| 20260503021629 | 57 | 188 | 0.9 | 2.6 | 0.00 | 0.00 | 0.00 | 40 | 1010.7 |
| 20260503021129 | 57 | 188 | 0.0 | 1.7 | 0.00 | 0.00 | 0.00 | 40 | 1010.7 |
| 20260503020734 | 57 | 188 | 0.9 | 1.7 | 0.00 | 0.00 | 0.00 | 40 | 1010.6 |
| 20260503020650 | 57 | 188 | 0.9 | 1.7 | 0.00 | 0.00 | 0.00 | 40 | 1010.7 |
| 20260503015632 | 58 | 188 | 1.7 | 1.7 | 0.00 | 0.00 | 0.00 | 39 | 1010.7 |
| 20260503015130 | 58 | 188 | 1.7 | 2.6 | 0.00 | 0.00 | 0.00 | 39 | 1010.7 |
| 20260503014629 | 58 | 188 | 1.7 | 2.6 | 0.00 | 0.00 | 0.00 | 39 | 1010.7 |
| 20260503014134 | 58 | 260 | 0.9 | 2.6 | 0.00 | 0.00 | 0.00 | 39 | 1010.6 |
| 20260503013943 | 58 | 260 | 0.0 | 2.6 | 0.00 | 0.00 | 0.00 | 38 | 1010.7 |
| 20260503013729 | 58 | 260 | 0.9 | 1.7 | 0.00 | 0.00 | 0.00 | 39 | 1010.6 |
| 20260503013154 | 58 | 260 | 0.9 | 2.6 | 0.00 | 0.00 | 0.00 | 39 | 1010.6 |
| 20260503012129 | 58 | 260 | 0.0 | 0.0 | 0.00 | 0.00 | 0.00 | 37 | 1010.8 |
| 20260503011628 | 58 | 260 | 0.0 | 0.0 | 0.00 | 0.00 | 0.00 | 37 | 1010.8 |
| 20260503011252 | 58 | 260 | 1.7 | 2.6 | 0.00 | 0.00 | 0.00 | 37 | 1010.8 |
| 20260503011153 | 58 | 260 | 0.9 | 1.7 | 0.00 | 0.00 | 0.00 | 39 | 1010.8 |
| 20260503010133 | 58 | 260 | 0.9 | 2.6 | 0.00 | 0.00 | 0.00 | 37 | 1010.9 |
| 20260503005629 | 58 | 261 | 0.0 | 2.6 | 0.00 | 0.00 | 0.00 | 38 | 1010.8 |
| 20260503005129 | 59 | 261 | 0.0 | 0.9 | 0.00 | 0.00 | 0.00 | 39 | 1010.8 |
| 20260503004751 | 59 | 261 | 0.0 | 0.9 | 0.00 | 0.00 | 0.00 | 39 | 1010.9 |
| 20260503004653 | 59 | 261 | 0.0 | 0.9 | 0.00 | 0.00 | 0.00 | 40 | 1010.8 |
| 20260503003628 | 59 | 261 | 0.9 | 1.7 | 0.00 | 0.00 | 0.00 | 39 | 1010.9 |
| 20260503003132 | 60 | 261 | 0.9 | 1.7 | 0.00 | 0.00 | 0.00 | 37 | 1010.9 |
| 20260503002630 | 60 | 261 | 0.9 | 2.6 | 0.00 | 0.00 | 0.00 | 37 | 1011.0 |
| 20260503002129 | 60 | 261 | 0.9 | 2.6 | 0.00 | 0.00 | 0.00 | 38 | 1011.0 |
| 20260503001630 | 60 | 261 | 0.9 | 2.6 | 0.00 | 0.00 | 0.00 | 38 | 1011.0 |
| 20260503001129 | 60 | 261 | 0.9 | 2.6 | 0.00 | 0.00 | 0.00 | 38 | 1011.1 |
| 20260503001023 | 60 | 246 | 0.9 | 2.6 | 0.00 | 0.00 | 0.00 | 37 | 1011.1 |
| 20260503000952 | 60 | 265 | 1.7 | 2.6 | 0.00 | 0.00 | 0.00 | 38 | 1011.1 |
| 20260503000727 | 60 | 263 | 0.9 | 2.6 | 0.00 | 0.00 | 0.00 | 38 | 1011.0 |
| 20260502235159 | 61 | 266 | 1.7 | 6.1 | 0.00 | 0.00 | 0.00 | 35 | 1011.3 |
| 20260502235131 | 60 | 256 | 1.7 | 4.3 | 0.00 | 0.00 | 0.00 | 37 | 1011.3 |
| 20260502235126 | 61 | 248 | 2.6 | 7.0 | 0.00 | 0.00 | 0.00 | 37 | 1011.4 |
| 20260502235054 | 61 | 246 | 2.6 | 7.0 | 0.00 | 0.00 | 0.00 | 37 | 1011.4 |
| 20260502234745 | 61 | 292 | 2.6 | 5.2 | 0.00 | 0.00 | 0.00 | 37 | 1011.4 |
| 20260502232632 | 61 | 288 | 3.5 | 7.0 | 0.00 | 0.00 | 0.00 | 35 | 1011.4 |
| 20260502232129 | 62 | 293 | 3.5 | 6.1 | 0.00 | 0.00 | 0.00 | 38 | 1011.5 |
| 20260502231629 | 62 | 289 | 2.6 | 6.1 | 0.00 | 0.00 | 0.00 | 37 | 1011.5 |
| 20260502231242 | 62 | 248 | 3.5 | 7.0 | 0.00 | 0.00 | 0.00 | 36 | 1011.6 |
| 20260502231152 | 62 | 296 | 2.6 | 4.3 | 0.00 | 0.00 | 0.00 | 37 | 1011.5 |
| 20260502230300 | 62 | 288 | 2.6 | 6.1 | 0.00 | 0.00 | 0.00 | 35 | 1011.7 |
| 20260502230156 | 62 | 299 | 3.5 | 7.0 | 0.00 | 0.00 | 0.00 | 35 | 1011.6 |
| 20260502225129 | 62 | 324 | 3.5 | 6.1 | 0.00 | 0.00 | 0.00 | 36 | 1011.7 |
| 20260502224633 | 62 | 294 | 3.5 | 7.8 | 0.00 | 0.00 | 0.00 | 34 | 1011.7 |
| 20260502224128 | 62 | 292 | 4.3 | 8.7 | 0.00 | 0.00 | 0.00 | 35 | 1011.8 |